Regional Weather Roundup
Issued by NWS Northern Indiana

Home | Current Version | Previous Version | Text Only | Print | Product List | Glossary On
Versions: 1 2 3 4 5 6 7 8 9 10 11 12 13 14 15 16 17 18 19 20 21 22 23 24 25 26 27 28 29 30 31 32 33 34 35 36 37 38 39 40 41 42 43 44 45 46 47 48 49 50
465
ASUS43 KIWX 250410
RWRIWX

KIWX WEATHER ROUNDUP
NATIONAL WEATHER SERVICE NORTHERN INDIANA
1100 PM EST FRI NOV 24 2017

NOTE: "FAIR" INDICATES FEW OR NO CLOUDS BELOW 12,000 FEET WITH NO
SIGNIFICANT WEATHER AND/OR OBSTRUCTIONS TO VISIBILITY.

* THESE STATIONS ARE NOT UNDER NWS QUALITY CONTROL. THEY ALSO MAY NOT
  REPORT WEATHER SUCH AS PRECIPITATION OR FOG.

INZ001>027-250500-
NORTHERN INDIANA

CITY           SKY/WX    TMP DP  RH WIND       PRES   REMARKS
GARY*          CLOUDY    53  35  51 SW7       29.56R
VALPARAISO     CLOUDY    53  37  54 SW14G24   29.57S
MICHIGAN CITY* PTCLDY    50  36  57 SW9       29.56S
LAPORTE*       PTCLDY    50  36  59 SW10G20   29.57S
KNOX*          PTCLDY    50  36  57 SW12      29.58R
SOUTH BEND     MOCLDY    50  36  58 SW17G25   29.57S
GOSHEN         PTCLDY    50  32  50 SW18G28   29.57S
MONTICELLO*    CLOUDY    51  33  50 SW18G28   29.59S
LOGANSPORT*    PTCLDY    48  34  57 SW17G24   29.61S
ROCHESTER*     CLOUDY    52  34  50 SW13      29.59S
WARSAW*        PTCLDY    50  32  50 SW8G17    29.58F
AUBURN*        PTCLDY    50  32  50 SW10      29.60F
FORT WAYNE     MOCLDY    49  32  52 SW17G24   29.61F
HUNTINGTON*    PTCLDY    48  30  49 SW13G20   29.61F
PERU/GRISSOM   PTCLDY    49  33  54 SW20G29   29.59F
MARION*        CLOUDY    46  32  57 S16       29.64S

$$
INZ028>050-250500-
CENTRAL INDIANA

CITY           SKY/WX    TMP DP  RH WIND       PRES   REMARKS
LAFAYETTE      CLOUDY    51  35  54 SW10G17   29.61F
KOKOMO*        MOCLDY    50  33  52 S20G32    29.62F
MUNCIE*        PTCLDY    52  28  39 SW20G26   29.65F
INDIANAPOLIS   CLOUDY    50  31  48 S15       29.69F

$$
MIZ043>046-050>051-056>058-064>065-071>073-077>080-250500-
SOUTHWEST LOWER MICHIGAN

CITY           SKY/WX    TMP DP  RH WIND       PRES   REMARKS
BATTLE CREEK   CLEAR     51  35  54 SW20      29.52F
BENTON HARBOR  PTCLDY    55  34  45 SW16      29.52S
COLDWATER*     CLEAR     49  31  50 SW15      29.55F
HILLSDALE*     CLEAR     46  32  57 S13G20    29.55F
HOLLAND        CLOUDY    52  39  61 SW25G38   29.48S
GRAND RAPIDS   CLOUDY    52  37  56 SW17G23   29.47S
KALAMAZOO      PTCLDY    52  32  46 SW16G24   29.53S
STURGIS*       CLOUDY    47  35  63 SW9G16    29.56S
THREE RIVERS*  FAIR      51  34  52 SW16G25   29.55S

$$
OHZ001>008-015>018-024>025-250500-
NORTHWEST OHIO

CITY           SKY/WX    TMP DP  RH WIND       PRES   REMARKS
WAUSEON*       FAIR      46  32  57 SW15      29.59S
DEFIANCE       PTCLDY    46  31  55 S13       29.61F
FINDLAY        MOCLDY    50  29  44 SW21G28   29.63S
TOLEDO EXPRESS CLEAR     50  32  50 SW16G24   29.59F
TOLEDO METCALF PTCLDY    49  31  49 SW16      29.61S
LIMA           MOCLDY    50  29  44 SW16G24   29.65R

$$
AND FOR LAKE MICHIGAN COASTAL AND OPEN LAKE BUOY OBSERVATIONS

STATION/POSITION TEMP    WIND        PRES    VSBY  WAVE
                 AIR SEA DIR/SP/G                  HT/PER
                 (F)     (DEG/KT/KT) (MB)    (MI)  (FT/S)
CALUMET HARBOR    52     200/  9/ 11  999.9R
MICHIGAN CITY     53     190/ 16/ 21   N/A
BURNS HARBOR      53     200/ 17/ 20 1001.0
SAINT JOSEPH      50     200/ 14/ 19 1000.0
SOUTH LAKE BUOY   49 47  250/ 16/ 17  998.3R         5/ 6

$$
&&




USA.gov is the U.S. government's official web portal to all federal, state and local government web resources and services.